Regional Weather Roundup
Issued by NWS

Home | Current Version | Previous Version | Text Only | Print | Product List | Glossary On
Versions: 1 2 3 4 5 6 7 8 9 10 11 12 13 14 15 16 17 18 19 20 21 22 23 24 25 26 27 28 29 30 31 32 33 34 35 36 37 38 39 40 41 42 43 44 45 46 47 48 49 50
000
ASUS43 KLMK 200802
RWRKY
KENTUCKY REGIONAL WEATHER ROUNDUP
NATIONAL WEATHER SERVICE LOUISVILLE KY
400 AM EDT MON OCT 20 2014

NOTE "FAIR" INDICATES FEW OR NO CLOUDS BELOW 12,000 FEET
WITH NO SIGNIFICANT WEATHER AND/OR OBSTRUCTIONS TO VISIBILITY.

KYZ001>023-026-027-061>063-070>075-200900-
WESTERN AND SOUTH CENTRAL KENTUCKY

CITY           SKY/WX    TMP DP  RH WIND       PRES   REMARKS
PADUCAH        CLEAR     49  45  86 CALM      30.05F
HENDERSON      PTCLDY    43  37  81 SW5       30.06S
OWENSBORO      PTCLDY    47  45  93 CALM      30.07R
HOPKINSVILLE   CLOUDY    47  47 100 SW1       30.06F
BOWLING GREEN  MOCLDY    43  40  89 CALM      30.07S
GLASGOW        NOT AVBL
$$

KYZ024-025-028>034-038-045-046-053-200900-
NORTH CENTRAL KENTUCKY

CITY           SKY/WX    TMP DP  RH WIND       PRES   REMARKS
LOUISVILLE/SDF MOCLDY    46  43  89 SE8       30.05F
LOUISVILLE/LOU MOCLDY    45  42  89 CALM      30.06F
FORT KNOX      CLOUDY    43  42  93 S2        30.04F
$$

KYZ035>037-039>044-047>052-055>060-089>105-200900-
NORTHEAST KENTUCKY

CITY           SKY/WX    TMP DP  RH WIND       PRES   REMARKS
LEXINGTON      CLOUDY    46  40  79 S6        30.05F
COVINGTON      CLOUDY    46  41  82 SW3       30.04S
FRANKFORT      CLOUDY    44  41  89 CALM      30.05S
$$

KYZ054-064>069-076>088-106>120-200900-
SOUTHEAST KENTUCKY

CITY           SKY/WX    TMP DP  RH WIND       PRES   REMARKS
JACKSON        MOCLDY    43  39  86 CALM      30.05F
LONDON         MOCLDY    44  40  85 CALM      30.07S
SOMERSET       CLOUDY    41  41 100 CALM      30.08F
MIDDLESBORO    CLOUDY    42  42 100 CALM      30.10S FOG
MONTICELLO     MOSUNNY   43  42  96 CALM      30.08F FOG
$$



USA.gov is the U.S. government's official web portal to all federal, state and local government web resources and services.